FW1108 Weather Reports


time (UTC)temp
C
wind
direction
speed
KPH
gust
KPH
rain 1hr
cm
rain 24hr
cm
rain mn
cm
humidity
%
barometer
mb
20260504090108 -17 0.0 0.0 0.00 0.28 0.00 980.4
20260504081547 -17 0.0 0.0 0.00 0.28 0.00 978.7
20260504044558 -17 152 17.7 29.0 0.00 0.28 0.00 973.0
20260504043046 -17 129 19.3 33.8 0.00 0.28 0.00 972.9
20260504041541 -17 133 22.5 38.6 0.00 0.28 0.00 973.4
20260504040052 -17 115 22.5 49.9 0.00 0.28 0.00 974.3
20260504034551 -17 108 32.2 49.9 0.00 0.28 0.00 974.6
20260504033056 -17 120 35.4 53.1 0.00 0.28 0.00 975.3
20260504031547 -17 109 32.2 54.7 0.00 0.28 0.00 976.3
20260504030046 -17 128 33.8 66.0 0.00 0.28 0.00 977.6
20260504024548 -17 134 35.4 53.1 0.00 0.28 0.28 978.3
20260504023054 -17 137 30.6 54.7 0.00 0.28 0.28 979.0
20260504021550 -17 148 32.2 53.1 0.00 0.28 0.28 979.8
20260504020047 -17 111 25.7 49.9 0.00 0.28 0.28 980.5
20260504014550 -17 139 20.9 32.2 0.00 0.28 0.28 981.4
20260504013050 -17 85 17.7 37.0 0.03 0.28 0.28 982.0
20260504011545 -17 73 30.6 53.1 0.05 0.28 0.28 982.8
20260504010054 -17 50 37.0 51.5 0.08 0.28 0.28 983.6
20260504004548 5 59 43.5 59.5 0.08 0.28 0.28 96 984.3
20260504003044 5 28 46.7 62.8 0.05 0.25 0.25 95 985.0
20260504001607 5 36 49.9 64.4 0.10 0.23 0.23 95 985.1
20260504000045 5 54 40.2 53.1 0.18 0.20 0.20 96 985.9
20260503234553 4 33 45.1 61.2 0.20 0.20 0.20 97 986.8
20260503233045 4 40 48.3 57.9 0.18 0.18 0.18 97 987.7
20260503231549 4 37 46.7 59.5 0.10 0.10 0.10 97 988.6
20260503230048 3 31 41.8 56.3 0.00 0.00 0.00 97 989.1
20260503224545 -17 33 41.8 56.3 0.00 0.00 0.00 990.1
20260503223054 -17 48 40.2 51.5 0.00 0.00 0.00 991.2
20260503221551 -17 45 40.2 48.3 0.00 0.00 0.00 992.2
20260503220108 -17 32 35.4 45.1 0.00 0.00 0.00 993.3
20260503214549 -17 43 37.0 45.1 0.00 0.00 0.00 994.0
20260503213050 -17 50 29.0 51.5 0.00 0.00 0.00 994.5
20260503211601 -17 55 45.1 51.5 0.00 0.00 0.00 994.6
20260503210049 -17 42 41.8 57.9 0.00 0.00 0.00 995.3
20260503204553 -17 49 45.1 54.7 0.00 0.00 0.00 996.0
20260503203047 -17 36 38.6 53.1 0.00 0.00 0.00 996.4
20260503201542 -17 44 45.1 56.3 0.00 0.00 0.00 996.9
20260503200049 -17 60 49.9 61.2 0.00 0.00 0.00 998.0
20260503194548 -17 58 46.7 56.3 0.00 0.00 0.00 998.2
20260503193049 -17 62 46.7 56.3 0.00 0.00 0.00 999.4
20260503191542 -17 51 43.5 54.7 0.00 0.00 0.00 999.8
20260503190048 -17 45 43.5 57.9 0.00 0.00 0.00 1000.3
20260503184548 -17 49 43.5 53.1 0.00 0.00 0.00 1001.4
20260503183045 -17 51 40.2 49.9 0.00 0.00 0.00 1002.4
20260503181617 -17 53 33.8 40.2 0.00 0.00 0.00 1003.6
20260503180104 -17 54 27.4 35.4 0.00 0.00 0.00 1004.8
20260503174554 -17 45 25.7 32.2 0.00 0.00 0.00 1005.2
20260503173055 -17 51 20.9 30.6 0.00 0.00 0.00 1005.8
20260503171546 -17 65 20.9 30.6 0.00 0.00 0.00 1006.9